Temp
12 12 12 12 12 12 12 12 11 11 11 11 11 11 12 12 12 12 12 12 12 12 12 12 11 11 11 10 10 10 10 10 10 10 10 9 9 9 8 8 8 8 8 7 7 7 7 7 6 6 6 6 5 5 5 4 4 4 3 3 3 2 2 2 2 2 1 1 1
12 12 12 12 12 12 12 12 12 11 11 11 11 12 12 12 12 13 13 13 12 12 12 11 11 11 11 10 10 10 10 10 10 10 10 9 9 8 8 8 7 7 7 7 7 7 6 6 6 6 5 5 5 5 4 4 4 3 3 3 2 2 2 2 2 1 1 1 1
12 12 12 13 12 12 12 12 12 12 12 12 12 12 12 12 12 13 13 13 13 12 12 11 11 11 10 10 10 10 10 10 10 10 9 9 9 8 8 7 7 7 6 6 6 6 6 6 6 5 5 5 5 4 4 4 3 3 3 2 2 2 2 2 1 1 1 1 1
12 12 12 12 13 13 12 12 12 12 12 12 12 11 12 12 13 13 13 13 13 12 12 11 11 11 10 10 10 10 10 10 10 9 9 9 9 8 8 7 7 6 6 6 6 6 6 5 5 5 5 4 4 4 4 3 3 3 2 2 2 2 2 2 1 1 1 1 1
12 12 12 12 13 13 13 12 12 12 12 12 11 11 12 12 12 13 13 13 12 12 12 11 11 11 10 10 10 10 10 10 9 9 9 8 8 8 8 7 7 6 6 6 6 5 5 5 5 5 4 4 4 4 3 3 3 3 2 2 2 2 2 1 1 1 1 1 1
12 12 12 12 13 13 13 12 12 12 12 11 11 11 12 12 12 12 12 12 12 12 12 11 11 11 10 10 10 10 10 9 9 8 8 8 8 7 7 7 6 6 6 5 5 5 5 5 4 4 4 4 3 3 3 3 3 2 2 2 2 2 2 1 1 1 1 1 1
12 12 12 12 13 13 13 12 12 12 11 11 11 11 12 12 12 12 12 12 12 12 12 11 11 11 11 11 11 10 10 9 8 8 8 7 7 7 6 6 6 6 5 5 5 5 5 4 4 4 4 3 3 3 3 3 3 2 2 2 2 2 1 1 1 1 1 1 1
12 12 12 12 12 12 12 12 12 11 11 11 11 11 12 12 12 12 12 12 12 12 12 11 11 11 11 11 11 10 10 9 8 8 7 7 6 6 5 5 5 5 5 5 5 5 4 4 4 4 3 3 3 3 3 3 3 2 2 2 1 1 1 1 1 1 1 1 0
12 12 12 12 12 12 12 12 12 12 11 11 10 11 11 11 11 11 11 11 11 12 12 11 11 11 11 11 11 11 10 9 9 8 7 7 6 6 5 5 5 5 5 5 5 4 4 4 3 3 3 3 3 2 2 3 2 2 2 1 1 1 1 1 1 1 1 0 0
12 12 11 11 12 12 12 12 12 12 11 11 10 9 10 10 11 11 11 11 11 11 11 11 11 11 11 11 11 10 10 9 9 8 7 7 6 6 5 5 5 5 5 5 5 4 4 4 3 3 3 3 3 2 2 2 2 2 2 1 1 1 1 1 1 1 0 0 0
12 12 11 11 12 12 12 12 11 11 11 11 10 9 9 10 10 11 11 10 10 10 11 11 11 11 11 11 11 10 10 9 9 8 7 7 6 6 6 5 5 5 5 5 4 4 4 4 3 3 3 3 3 2 2 2 2 2 2 1 1 1 1 0 1 0 0 0 0
12 12 11 11 11 11 11 11 11 11 11 11 10 9 9 9 10 10 11 10 10 10 10 10 11 11 11 11 11 10 10 9 8 8 7 6 6 6 6 5 5 5 5 5 4 4 4 3 3 3 3 3 2 2 2 2 2 2 1 1 1 0 0 0 0 0 0 0 0
12 12 12 11 11 11 11 11 11 11 10 10 10 10 9 9 9 10 10 10 9 9 9 10 10 11 11 11 10 10 9 9 8 7 7 6 6 6 5 5 5 5 4 4 4 4 4 3 3 3 2 2 2 2 2 2 2 1 1 1 0 0 0 0 0 0 0 0 0
12 12 12 11 11 11 11 11 11 10 10 10 10 10 10 9 9 9 9 9 9 9 9 9 10 10 10 10 10 9 9 8 7 7 6 6 6 5 5 5 5 4 4 4 4 4 4 3 3 3 2 2 2 2 2 2 1 1 1 1 0 0 0 0 0 0 0 0 0
12 12 12 11 11 11 11 11 10 10 10 10 10 10 10 9 9 9 8 8 8 8 8 9 9 10 10 10 9 9 8 7 7 6 6 5 5 5 5 5 4 4 4 4 4 4 3 3 3 2 2 2 2 1 1 1 1 1 1 1 1 0 0 0 0 0 0 0 0
12 12 12 11 11 11 11 11 10 10 10 10 10 10 10 9 9 8 8 8 8 8 8 8 9 9 9 9 8 8 7 7 6 6 5 5 5 5 5 4 4 4 4 4 4 4 3 3 2 2 1 1 1 1 1 1 1 1 1 1 1 1 0 0 0 0 0 0 0
13 12 12 12 11 11 11 11 10 10 10 10 10 10 10 9 9 9 8 8 8 8 7 7 8 8 8 8 8 7 6 6 6 5 5 5 5 4 4 4 4 4 3 3 3 3 3 2 2 1 1 0 -0 0 0 0 1 1 1 1 1 1 1 0 0 0 0 0 0
13 12 12 12 11 11 11 11 11 10 10 10 10 10 10 9 9 9 8 8 8 8 7 7 7 7 7 7 7 6 6 5 5 5 5 4 4 4 4 4 4 3 3 3 3 3 3 2 2 1 0 -0 -0 -0 -0 0 1 1 1 1 1 1 1 0 0 0 0 0 0
13 12 12 12 12 11 11 11 11 10 10 10 10 10 9 9 9 9 8 8 8 7 7 7 7 7 7 7 7 6 6 5 5 5 4 4 4 4 4 4 3 3 3 2 2 2 2 2 1 1 1 -0 -1 -1 -0 0 0 1 1 1 1 1 1 0 0 0 0 0 0
13 13 12 12 12 11 11 11 11 10 10 9 9 9 9 9 9 9 8 8 8 7 7 7 7 6 6 6 6 6 5 5 5 4 4 4 4 4 3 3 3 3 3 2 2 2 2 2 1 1 1 -0 -1 -1 -0 -0 0 1 1 1 1 1 1 0 0 -0 -0 -0 -0
13 13 12 12 12 11 11 11 10 10 10 9 9 9 9 9 9 8 8 8 7 7 7 7 6 6 6 6 6 5 5 5 4 4 4 4 4 3 3 3 3 3 3 2 2 1 1 1 1 1 1 -0 -1 -1 -1 -0 0 0 0 0 1 1 1 0 0 -0 -0 -0 -0
13 13 13 12 12 11 11 11 10 10 10 9 9 9 9 9 8 8 8 8 7 7 7 7 6 6 6 6 6 5 5 5 4 4 4 4 4 3 3 3 3 3 2 2 1 1 1 1 1 1 1 -0 -1 -1 -1 -0 0 0 0 0 0 0 0 0 0 -0 -0 -0 -0
13 13 13 12 12 12 11 11 10 10 10 9 9 9 9 8 8 8 8 7 7 7 7 7 7 6 6 6 6 6 5 5 5 4 4 4 4 3 3 3 2 2 2 1 1 1 1 1 1 1 0 -0 -0 -1 -1 -0 0 0 0 0 0 0 0 -0 -0 -0 -0 -0 -0
13 13 13 13 12 12 12 11 11 10 10 9 9 9 8 8 8 8 7 7 7 7 7 7 7 7 6 6 6 5 5 5 5 5 4 4 3 3 2 2 1 1 1 1 2 2 2 1 1 1 0 -0 -0 -0 -0 -0 0 0 0 -0 -0 -0 -0 -0 -0 -0 -0 -0 -0
13 13 13 13 12 12 12 11 11 10 10 10 9 9 8 8 8 8 7 7 7 7 7 7 7 7 6 6 6 5 5 5 5 5 5 4 4 3 3 2 2 2 2 2 2 2 2 1 1 1 0 0 0 -0 -0 0 0 0 -0 -0 -0 -0 -0 -0 -0 -0 -0 -0 -1
13 13 13 13 12 12 12 12 11 11 10 10 9 9 8 8 8 8 8 7 7 7 7 7 7 7 6 6 6 6 6 6 6 6 6 6 6 5 5 4 4 3 3 3 2 2 1 1 1 1 1 1 0 0 -0 -0 -0 -0 -0 -0 -0 -0 -0 -0 -0 -0 -0 -0 -0
13 13 13 13 12 12 12 12 11 11 10 10 9 9 9 8 8 8 8 8 7 7 7 7 7 6 6 6 6 6 6 7 7 7 7 7 7 7 6 5 5 4 4 3 2 2 1 1 1 1 1 1 0 0 -0 -0 -0 -1 -1 -0 -0 -0 -0 -0 -0 -0 -0 -0 -0
13 13 13 13 12 12 12 12 11 11 10 10 10 9 9 8 8 8 8 7 7 7 7 6 6 6 6 6 6 6 7 7 8 8 7 7 7 6 6 5 5 4 4 3 2 2 1 1 1 1 1 1 0 0 -0 -0 -1 -1 -0 -0 -0 -0 -0 -0 -1 -1 -1 -1 -1
13 13 12 12 12 12 12 12 11 11 10 10 10 9 9 9 8 8 8 7 7 7 6 6 6 6 6 6 6 6 7 7 7 7 6 6 5 5 5 5 4 4 3 2 2 1 1 1 1 1 1 1 0 0 -0 -0 -1 -1 -0 -0 -0 -0 -0 -1 -1 -1 -1 -1 -1
13 13 12 12 12 12 12 12 11 11 11 10 10 9 9 9 8 8 7 7 7 7 7 7 7 7 6 6 6 6 6 6 6 5 5 5 4 4 4 4 3 3 2 2 1 1 1 2 2 1 1 1 0 0 -0 -0 -0 -0 -0 -0 -0 -0 -0 -1 -1 -1 -1 -1 -1
13 13 12 12 12 12 12 12 11 11 11 10 10 9 9 9 8 8 8 7 7 7 7 8 7 7 7 6 6 6 6 6 5 5 5 4 4 3 3 3 2 2 2 1 1 1 1 2 2 1 1 0 0 0 -0 -0 -0 -0 -0 -0 -0 -0 -0 -1 -1 -1 -1 -1 -1
13 13 12 12 12 12 11 11 11 11 10 10 10 9 9 9 8 8 8 8 7 7 7 7 7 7 7 6 6 6 6 5 5 5 5 4 4 3 3 3 2 1 1 1 1 1 2 2 2 1 1 0 0 -0 -0 -0 -1 -0 -0 -0 -0 -0 -0 -1 -1 -1 -1 -1 -1
13 12 12 12 12 11 11 11 11 11 10 10 10 9 9 9 8 8 8 8 7 7 7 7 7 6 6 6 6 6 5 5 5 5 4 4 3 3 3 2 1 1 1 1 1 1 2 2 2 1 1 0 0 -0 -0 -1 -1 -1 -0 -0 -0 -0 -0 -0 -1 -1 -1 -1 -1
12 12 12 12 11 11 11 11 11 11 10 10 9 9 9 8 8 8 8 7 7 7 7 7 6 6 6 6 5 5 5 5 4 4 4 3 3 3 2 2 1 1 1 2 2 2 2 2 2 1 0 0 -0 -1 -1 -1 -1 -1 -0 -0 -0 -0 -0 -1 -1 -1 -1 -1 -1
12 12 11 11 11 11 11 11 10 10 10 9 9 9 8 8 8 8 7 7 7 7 6 6 6 5 5 5 5 4 4 4 4 4 3 3 2 2 2 2 1 1 2 2 2 2 2 2 1 1 0 -0 -1 -1 -1 -1 -1 -1 -0 -0 -0 -0 -0 -1 -1 -1 -1 -1 -1
12 11 11 11 11 11 10 10 10 10 9 9 9 8 8 8 7 7 7 7 6 6 6 5 5 5 4 4 4 4 4 3 3 3 3 2 2 2 2 1 1 1 2 2 2 2 2 1 1 0 -0 -1 -1 -1 -1 -1 -1 -0 -0 -0 -1 -1 -1 -1 -1 -1 -1 -1 -1
11 11 11 11 10 10 10 10 9 9 9 9 9 8 8 7 7 7 6 6 6 6 5 5 4 4 4 4 3 3 3 3 3 2 2 2 1 1 1 1 1 1 1 2 2 2 1 1 0 -0 -0 -1 -1 -1 -1 -1 -1 -1 -1 -1 -1 -1 -1 -1 -1 -1 -1 -1 -1
11 11 11 10 10 10 9 9 9 9 9 8 8 8 7 7 6 6 6 6 5 5 5 4 4 3 3 3 3 3 3 2 2 2 1 1 1 1 1 1 1 1 1 1 1 1 1 1 0 -0 -0 -0 -1 -1 -0 -0 -0 -1 -1 -1 -1 -1 -1 -1 -1 -1 -1 -1 -1
11 11 11 10 10 9 9 9 8 8 8 8 7 7 7 6 6 6 5 5 5 4 4 4 3 3 3 3 2 2 2 2 1 1 1 1 1 1 1 1 1 1 1 1 1 1 0 0 0 -0 -0 -0 -0 -0 -0 -0 -0 -0 -1 -1 -1 -1 -1 -1 -1 -1 -1 -1 -1
11 10 10 10 9 9 8 8 8 8 8 7 7 7 6 6 5 5 5 5 4 4 4 4 3 3 3 3 2 2 1 1 1 1 1 1 1 1 1 1 1 1 1 1 0 0 0 0 0 -0 -0 -0 -0 -0 -0 -0 -0 -0 -1 -1 -1 -1 -1 -1 -1 -1 -1 -2 -1
10 10 10 9 9 8 8 8 7 7 7 7 6 6 6 5 5 5 5 4 4 4 4 4 4 3 3 2 2 2 1 1 1 1 1 1 1 1 1 1 1 1 0 0 0 0 0 0 -0 -0 -0 -0 0 -0 -0 -0 -1 -1 -1 -1 -1 -1 -2 -2 -2 -2 -2 -1 -1
Height
1520 1520 1521 1521 1522 1522 1523 1524 1525 1525 1526 1527 1527 1527 1527 1528 1528 1529 1530 1530 1531 1532 1532 1534 1534 1535 1536 1536 1536 1536 1536 1536 1537 1537 1537 1538 1538 1539 1539 1540 1540 1541 1541 1542 1542 1542 1542 1542 1542 1543 1543 1544 1544 1545 1545 1545 1546 1546 1547 1547 1548 1548 1548 1549 1549 1549 1548 1549 1549
1517 1518 1518 1519 1520 1521 1522 1522 1523 1523 1524 1525 1525 1526 1526 1526 1527 1527 1528 1529 1530 1531 1532 1532 1533 1533 1534 1534 1534 1534 1534 1534 1535 1535 1536 1537 1537 1537 1538 1538 1539 1539 1540 1540 1540 1541 1541 1541 1542 1542 1542 1543 1543 1543 1544 1544 1545 1545 1546 1546 1547 1547 1547 1548 1548 1548 1548 1548 1548
1516 1516 1517 1517 1518 1519 1519 1520 1521 1521 1522 1523 1523 1524 1524 1524 1525 1526 1527 1527 1528 1529 1530 1531 1531 1532 1532 1532 1532 1532 1532 1533 1533 1534 1534 1535 1535 1536 1536 1537 1537 1538 1538 1539 1539 1540 1540 1540 1541 1541 1541 1542 1542 1542 1543 1543 1544 1544 1545 1545 1546 1546 1546 1547 1547 1547 1547 1547 1548
1514 1514 1514 1515 1516 1517 1517 1518 1519 1519 1520 1521 1522 1522 1522 1522 1523 1524 1525 1526 1527 1527 1528 1529 1530 1530 1530 1531 1531 1531 1531 1531 1532 1532 1532 1533 1533 1534 1534 1535 1536 1536 1537 1537 1538 1538 1539 1539 1539 1540 1540 1541 1541 1542 1542 1542 1543 1543 1544 1544 1544 1545 1545 1546 1546 1546 1546 1547 1547
1512 1512 1512 1512 1513 1514 1515 1516 1517 1517 1518 1519 1520 1520 1520 1521 1521 1522 1523 1524 1524 1525 1526 1527 1528 1529 1529 1529 1529 1529 1529 1530 1530 1531 1531 1531 1532 1532 1532 1533 1534 1535 1535 1536 1537 1537 1537 1538 1538 1539 1539 1540 1540 1541 1541 1541 1542 1542 1543 1543 1543 1543 1544 1544 1544 1545 1545 1545 1546
1510 1510 1510 1510 1511 1512 1513 1514 1515 1516 1516 1517 1517 1518 1518 1519 1519 1520 1521 1522 1522 1523 1525 1526 1527 1527 1527 1527 1527 1527 1528 1528 1529 1529 1530 1530 1530 1530 1531 1531 1532 1533 1534 1534 1535 1536 1536 1537 1537 1538 1538 1539 1539 1539 1540 1540 1541 1541 1542 1542 1542 1542 1542 1543 1543 1543 1543 1544 1544
1508 1508 1508 1508 1509 1510 1511 1512 1513 1514 1515 1515 1516 1516 1517 1517 1518 1518 1519 1520 1521 1522 1523 1524 1524 1525 1525 1525 1526 1526 1527 1527 1527 1528 1528 1528 1529 1529 1529 1530 1531 1531 1532 1533 1534 1535 1535 1536 1536 1537 1537 1537 1538 1538 1539 1539 1539 1540 1540 1541 1541 1541 1541 1542 1542 1542 1542 1542 1543
1506 1507 1507 1507 1507 1508 1509 1510 1511 1512 1513 1514 1514 1515 1515 1516 1517 1517 1518 1519 1520 1520 1521 1522 1522 1522 1523 1523 1524 1524 1525 1526 1526 1526 1527 1527 1527 1528 1528 1529 1530 1530 1531 1532 1533 1533 1534 1535 1535 1536 1536 1536 1537 1537 1537 1538 1538 1539 1539 1539 1540 1540 1540 1541 1541 1541 1541 1542 1542
1504 1505 1505 1505 1506 1507 1507 1508 1509 1510 1511 1512 1513 1514 1514 1515 1517 1517 1518 1518 1518 1519 1519 1520 1520 1521 1521 1522 1522 1523 1524 1524 1524 1525 1525 1526 1526 1527 1527 1528 1529 1529 1530 1531 1532 1532 1533 1533 1534 1534 1535 1535 1536 1536 1537 1537 1537 1537 1538 1538 1538 1539 1539 1539 1540 1540 1540 1540 1541
1502 1503 1503 1503 1504 1504 1506 1507 1507 1508 1509 1510 1512 1513 1514 1515 1516 1516 1517 1517 1517 1517 1517 1518 1518 1518 1519 1520 1521 1522 1522 1522 1523 1523 1524 1524 1524 1525 1526 1527 1527 1528 1529 1530 1530 1531 1532 1532 1533 1533 1534 1534 1535 1535 1535 1536 1536 1536 1536 1537 1537 1538 1538 1538 1538 1539 1539 1539 1539
1500 1501 1501 1502 1502 1502 1504 1505 1506 1506 1507 1508 1510 1512 1514 1514 1514 1514 1515 1515 1516 1516 1516 1516 1516 1517 1517 1518 1519 1520 1520 1521 1521 1522 1522 1522 1523 1523 1524 1525 1526 1527 1527 1528 1529 1530 1530 1531 1532 1532 1532 1533 1534 1534 1534 1535 1535 1535 1535 1536 1536 1537 1537 1537 1537 1537 1537 1537 1537
1499 1499 1500 1500 1500 1501 1502 1503 1504 1505 1506 1507 1508 1509 1511 1511 1512 1512 1512 1513 1514 1514 1514 1514 1514 1515 1516 1517 1518 1518 1519 1519 1520 1520 1521 1521 1522 1522 1522 1523 1524 1525 1526 1526 1527 1528 1529 1529 1530 1531 1531 1532 1532 1533 1533 1534 1534 1534 1534 1535 1535 1535 1536 1536 1536 1536 1536 1536 1536
1497 1498 1498 1499 1499 1499 1500 1501 1502 1503 1504 1505 1506 1507 1507 1508 1509 1510 1511 1512 1513 1513 1513 1513 1512 1513 1514 1515 1516 1517 1517 1517 1518 1519 1519 1520 1520 1521 1521 1522 1522 1523 1524 1525 1525 1526 1527 1528 1529 1530 1530 1531 1531 1532 1532 1533 1533 1533 1533 1533 1534 1534 1534 1534 1534 1535 1535 1535 1535
1496 1497 1497 1497 1497 1498 1498 1499 1500 1501 1502 1503 1503 1504 1505 1505 1506 1507 1509 1511 1512 1513 1512 1511 1511 1512 1513 1514 1514 1515 1515 1516 1517 1517 1518 1518 1519 1519 1520 1521 1521 1522 1522 1523 1524 1525 1526 1527 1528 1529 1529 1530 1530 1531 1532 1532 1532 1532 1532 1532 1532 1532 1532 1533 1533 1533 1533 1533 1533
1494 1495 1495 1496 1496 1496 1496 1497 1498 1499 1500 1500 1501 1502 1502 1503 1504 1505 1507 1510 1511 1511 1511 1510 1510 1510 1511 1512 1513 1513 1514 1515 1516 1517 1517 1517 1518 1518 1519 1520 1520 1521 1522 1522 1523 1524 1525 1526 1527 1528 1529 1529 1529 1530 1531 1531 1531 1531 1531 1530 1530 1531 1531 1532 1532 1532 1532 1532 1532
1492 1493 1493 1494 1494 1494 1494 1495 1496 1497 1497 1498 1498 1499 1500 1501 1502 1502 1504 1507 1509 1509 1509 1508 1508 1509 1510 1511 1511 1512 1513 1514 1514 1515 1516 1517 1517 1517 1518 1519 1520 1520 1521 1521 1522 1523 1524 1525 1526 1527 1527 1528 1528 1528 1529 1529 1530 1530 1529 1529 1529 1530 1530 1530 1531 1531 1531 1531 1531
1490 1491 1492 1492 1492 1492 1492 1493 1494 1495 1495 1496 1496 1497 1498 1499 1499 1500 1502 1504 1507 1507 1507 1507 1507 1507 1508 1509 1510 1511 1512 1512 1513 1514 1515 1516 1516 1517 1517 1518 1519 1520 1520 1521 1521 1522 1523 1524 1525 1525 1525 1525 1525 1526 1527 1527 1528 1528 1528 1528 1528 1528 1529 1529 1529 1530 1530 1530 1530
1488 1489 1490 1490 1490 1490 1490 1491 1492 1493 1493 1494 1494 1495 1496 1497 1497 1498 1499 1501 1504 1505 1506 1506 1506 1506 1507 1507 1508 1509 1510 1511 1512 1513 1514 1515 1515 1516 1517 1518 1519 1519 1520 1520 1520 1521 1522 1522 1523 1522 1522 1522 1523 1524 1525 1525 1526 1526 1527 1527 1527 1527 1527 1528 1528 1528 1528 1528 1528
1486 1487 1488 1488 1488 1488 1489 1490 1491 1492 1492 1493 1493 1494 1495 1496 1496 1496 1497 1498 1501 1502 1504 1504 1505 1505 1505 1506 1507 1508 1509 1510 1511 1512 1513 1514 1515 1516 1516 1517 1518 1518 1519 1519 1519 1520 1520 1520 1520 1519 1519 1520 1521 1522 1522 1523 1524 1525 1525 1525 1525 1526 1526 1526 1526 1526 1526 1526 1526
1484 1485 1486 1487 1487 1487 1488 1488 1490 1491 1491 1492 1492 1493 1493 1494 1495 1495 1495 1496 1498 1500 1502 1503 1503 1503 1504 1505 1506 1507 1508 1509 1510 1511 1512 1513 1514 1515 1516 1516 1517 1517 1518 1518 1518 1518 1517 1517 1517 1517 1517 1518 1518 1519 1521 1522 1523 1523 1523 1523 1524 1524 1524 1524 1525 1525 1525 1524 1524
1483 1484 1485 1486 1486 1487 1487 1488 1489 1489 1490 1491 1491 1492 1492 1492 1493 1494 1494 1495 1496 1497 1499 1501 1502 1502 1503 1503 1504 1505 1507 1508 1509 1510 1511 1512 1513 1514 1515 1515 1515 1516 1516 1517 1516 1515 1514 1513 1514 1515 1515 1516 1516 1517 1518 1520 1521 1522 1522 1522 1522 1522 1522 1523 1523 1523 1523 1522 1522
1482 1483 1484 1485 1486 1486 1487 1487 1488 1488 1489 1489 1490 1490 1491 1491 1492 1492 1493 1493 1494 1496 1497 1499 1500 1500 1501 1502 1503 1503 1504 1505 1507 1508 1509 1511 1512 1513 1513 1513 1513 1514 1514 1514 1512 1511 1510 1511 1512 1513 1513 1513 1514 1515 1517 1518 1519 1520 1520 1520 1520 1520 1521 1521 1521 1521 1521 1521 1520
1480 1482 1483 1484 1484 1485 1486 1486 1487 1487 1487 1488 1488 1489 1489 1490 1491 1491 1492 1492 1493 1494 1495 1497 1498 1498 1499 1500 1501 1501 1502 1502 1503 1505 1506 1508 1510 1511 1512 1512 1512 1512 1511 1509 1507 1507 1507 1509 1510 1511 1511 1511 1512 1513 1515 1516 1517 1518 1518 1518 1518 1519 1519 1519 1519 1519 1519 1519 1518
1479 1480 1482 1482 1483 1484 1485 1485 1486 1486 1487 1487 1487 1488 1488 1489 1489 1490 1490 1491 1492 1492 1494 1495 1496 1496 1497 1497 1498 1498 1498 1498 1500 1501 1503 1504 1506 1507 1508 1507 1507 1506 1505 1504 1503 1504 1506 1507 1508 1508 1508 1509 1510 1511 1513 1514 1515 1516 1516 1517 1517 1517 1517 1517 1517 1517 1517 1516 1516
1478 1479 1480 1481 1482 1483 1483 1484 1484 1485 1485 1486 1486 1487 1487 1487 1488 1488 1489 1489 1490 1491 1492 1493 1493 1494 1494 1494 1495 1495 1495 1495 1496 1498 1499 1499 1500 1501 1502 1502 1502 1502 1501 1501 1501 1502 1504 1505 1506 1506 1506 1507 1508 1510 1511 1512 1513 1514 1514 1514 1515 1515 1515 1514 1514 1514 1514 1513 1513
1477 1477 1479 1480 1481 1482 1482 1482 1483 1483 1484 1484 1485 1486 1486 1486 1487 1487 1487 1488 1488 1489 1489 1490 1491 1491 1491 1491 1492 1492 1492 1492 1493 1493 1493 1493 1494 1495 1496 1496 1497 1497 1498 1498 1499 1501 1502 1502 1503 1503 1504 1505 1507 1508 1509 1510 1511 1512 1512 1512 1512 1512 1512 1512 1511 1511 1511 1511 1511
1475 1476 1477 1478 1479 1480 1481 1481 1482 1482 1482 1483 1484 1484 1484 1485 1485 1485 1486 1486 1486 1487 1488 1488 1489 1489 1489 1489 1489 1489 1489 1489 1489 1489 1489 1490 1490 1490 1491 1491 1492 1493 1494 1496 1497 1498 1500 1500 1501 1501 1502 1503 1505 1506 1507 1508 1509 1510 1510 1510 1510 1510 1509 1509 1509 1508 1508 1508 1508
1473 1474 1476 1477 1478 1479 1479 1480 1481 1481 1481 1482 1482 1483 1483 1483 1484 1484 1484 1485 1485 1486 1486 1487 1487 1487 1487 1487 1488 1487 1487 1487 1487 1488 1488 1488 1488 1488 1489 1489 1490 1491 1492 1493 1495 1496 1497 1498 1498 1500 1501 1502 1503 1504 1505 1506 1507 1507 1508 1507 1507 1507 1507 1507 1507 1506 1506 1506 1505
1472 1473 1474 1475 1476 1477 1478 1479 1480 1480 1480 1481 1481 1482 1482 1482 1483 1483 1483 1484 1484 1484 1483 1484 1484 1485 1486 1487 1487 1487 1487 1487 1487 1487 1487 1487 1487 1487 1487 1488 1489 1490 1491 1492 1493 1494 1495 1496 1497 1498 1499 1500 1501 1502 1503 1504 1505 1505 1505 1505 1505 1505 1505 1505 1504 1504 1503 1503 1503
1471 1472 1473 1474 1475 1476 1477 1478 1478 1479 1479 1479 1480 1481 1481 1482 1482 1482 1482 1481 1481 1481 1482 1482 1483 1484 1485 1486 1487 1487 1487 1487 1487 1487 1487 1486 1486 1486 1487 1487 1488 1489 1489 1490 1491 1492 1493 1494 1495 1497 1497 1498 1499 1500 1501 1502 1502 1503 1503 1503 1503 1503 1502 1502 1502 1502 1501 1501 1501
1470 1471 1472 1472 1474 1475 1476 1477 1477 1477 1477 1477 1478 1479 1479 1479 1479 1479 1479 1479 1479 1480 1481 1482 1483 1484 1485 1486 1486 1487 1487 1487 1486 1486 1485 1485 1485 1486 1486 1487 1487 1488 1488 1489 1490 1491 1492 1493 1494 1495 1496 1497 1497 1498 1499 1500 1500 1501 1501 1501 1501 1501 1500 1500 1500 1499 1499 1499 1498
1469 1470 1471 1472 1473 1474 1474 1474 1474 1474 1475 1475 1476 1476 1477 1477 1477 1477 1478 1478 1479 1479 1480 1481 1482 1483 1484 1485 1485 1485 1485 1485 1485 1484 1484 1484 1484 1484 1485 1486 1487 1487 1487 1488 1489 1490 1491 1492 1492 1493 1494 1495 1496 1496 1497 1498 1498 1499 1499 1499 1498 1498 1498 1497 1497 1497 1496 1496 1496
1468 1469 1470 1471 1472 1471 1471 1471 1472 1473 1474 1474 1475 1475 1476 1476 1477 1477 1477 1478 1478 1479 1480 1481 1482 1482 1483 1483 1483 1484 1483 1483 1483 1483 1483 1483 1483 1484 1484 1485 1486 1486 1486 1487 1488 1489 1489 1490 1491 1492 1493 1493 1494 1495 1496 1497 1497 1497 1497 1497 1496 1496 1495 1495 1495 1494 1494 1494 1493
1467 1468 1469 1469 1469 1469 1469 1470 1471 1472 1473 1474 1474 1475 1475 1476 1476 1477 1477 1477 1478 1479 1479 1480 1481 1481 1482 1482 1482 1482 1482 1482 1482 1482 1482 1482 1482 1483 1483 1485 1485 1485 1484 1486 1487 1488 1488 1489 1490 1491 1491 1492 1493 1494 1495 1495 1495 1495 1495 1494 1494 1493 1493 1492 1492 1492 1492 1491 1491
1466 1467 1467 1467 1467 1467 1468 1469 1470 1472 1472 1473 1474 1474 1475 1475 1476 1476 1477 1477 1477 1478 1479 1479 1480 1480 1481 1481 1481 1481 1481 1481 1481 1481 1481 1482 1482 1482 1482 1483 1484 1483 1483 1485 1486 1487 1487 1488 1488 1489 1490 1491 1492 1493 1493 1494 1494 1493 1492 1492 1491 1491 1490 1490 1490 1489 1489 1489 1488
1464 1465 1465 1466 1466 1467 1467 1468 1469 1470 1471 1472 1472 1473 1474 1474 1475 1475 1476 1476 1477 1477 1478 1478 1479 1479 1479 1479 1479 1479 1479 1479 1480 1480 1480 1481 1481 1482 1482 1483 1483 1483 1483 1484 1485 1486 1486 1487 1487 1488 1489 1490 1491 1492 1492 1492 1492 1491 1490 1490 1489 1488 1488 1487 1487 1487 1487 1486 1486
1462 1463 1464 1465 1465 1466 1466 1467 1468 1469 1470 1471 1471 1472 1473 1473 1474 1474 1474 1475 1476 1476 1477 1477 1477 1477 1477 1478 1478 1478 1478 1478 1479 1479 1480 1480 1481 1481 1481 1482 1483 1482 1482 1483 1484 1485 1485 1486 1486 1487 1488 1489 1490 1490 1491 1490 1490 1489 1488 1487 1487 1486 1486 1485 1485 1484 1484 1483 1483
1461 1462 1463 1464 1464 1465 1465 1466 1467 1467 1468 1469 1470 1471 1472 1472 1473 1473 1473 1474 1474 1475 1476 1476 1476 1476 1477 1477 1477 1477 1477 1477 1478 1478 1479 1479 1480 1480 1481 1482 1482 1482 1482 1482 1483 1483 1484 1484 1485 1487 1487 1488 1489 1489 1489 1488 1487 1487 1486 1485 1484 1483 1483 1483 1482 1482 1481 1481 1480
1461 1461 1462 1463 1464 1464 1465 1465 1465 1466 1467 1468 1469 1470 1470 1471 1472 1472 1472 1472 1473 1474 1475 1475 1476 1476 1476 1476 1477 1477 1477 1477 1477 1477 1478 1478 1479 1480 1480 1481 1482 1482 1482 1482 1482 1482 1483 1484 1485 1486 1487 1487 1487 1487 1487 1486 1485 1484 1484 1483 1482 1481 1481 1481 1480 1480 1479 1478 1477
1460 1461 1461 1462 1463 1464 1464 1465 1465 1465 1466 1467 1468 1468 1469 1470 1471 1471 1472 1472 1472 1473 1474 1475 1476 1476 1476 1476 1476 1477 1477 1477 1477 1477 1477 1478 1479 1479 1480 1481 1481 1481 1481 1481 1481 1482 1482 1483 1484 1485 1485 1486 1486 1486 1485 1484 1483 1482 1482 1481 1480 1479 1479 1478 1478 1477 1477 1476 1476
1459 1460 1461 1462 1462 1463 1464 1464 1464 1465 1465 1466 1467 1468 1468 1469 1470 1471 1472 1472 1472 1473 1474 1475 1475 1476 1476 1475 1475 1476 1476 1476 1476 1476 1477 1477 1478 1479 1479 1480 1480 1480 1480 1480 1481 1482 1482 1483 1483 1484 1484 1484 1484 1484 1483 1482 1482 1481 1480 1479 1478 1478 1477 1477 1476 1476 1475 1474 1474
Wind_Speed
27 27 28 28 28 28 27 26 25 25 25 25 26 27 28 28 28 29 29 29 28 27 26 25 24 24 23 23 22 20 18 16 15 13 13 13 13 12 12 12 11 11 11 10 10 9 9 9 8 8 7 6 5 5 4 3 3 2 2 2 2 2 2 2 3 4 3 3 4
29 29 29 30 30 29 29 28 27 26 26 26 26 27 28 28 29 29 29 29 28 27 26 26 25 25 25 24 23 22 20 18 16 15 14 14 14 13 13 13 12 12 11 11 11 10 10 10 9 9 8 7 6 6 5 4 3 3 3 2 2 2 2 3 4 4 4 4 5
30 30 31 31 31 31 30 29 29 28 28 28 28 28 29 29 29 29 28 28 27 27 27 26 26 27 26 26 25 24 22 20 18 16 16 16 15 14 14 14 13 13 12 12 11 11 11 10 10 9 8 7 7 6 6 5 4 4 4 3 3 3 3 4 5 5 4 5 6
31 31 32 33 33 32 32 31 30 30 29 29 29 29 30 30 29 29 28 28 27 27 27 27 27 28 28 27 27 25 24 21 19 18 17 17 16 15 15 15 14 14 14 13 12 12 12 11 10 10 9 8 8 7 7 6 5 4 4 4 3 3 4 5 5 6 5 6 7
32 32 33 34 34 33 33 33 32 31 30 29 29 30 31 31 30 30 29 29 28 28 28 28 28 29 29 28 28 27 25 23 21 19 19 18 17 16 16 15 15 15 15 14 13 13 13 12 11 10 10 9 9 8 7 6 5 5 5 5 4 4 5 5 6 6 6 7 7
33 34 35 36 35 34 34 33 33 32 31 30 30 31 32 32 32 31 30 30 29 29 28 29 29 29 30 29 29 28 26 24 22 21 20 19 18 18 17 17 16 16 15 15 14 14 13 13 12 11 11 10 10 9 8 7 6 6 6 6 6 5 5 6 7 7 7 7 8
33 34 35 37 37 36 35 34 34 33 32 31 31 32 33 33 33 32 31 30 30 29 29 30 30 31 31 30 29 28 27 25 24 22 21 20 20 19 19 18 17 17 16 15 15 14 14 13 13 12 12 12 11 10 9 7 6 6 7 7 7 6 6 7 8 8 7 8 9
31 33 35 36 38 38 37 36 35 34 33 32 32 33 33 33 33 32 32 31 30 30 30 31 31 32 32 31 30 29 27 26 25 23 22 21 20 20 19 19 18 17 16 16 15 15 14 14 14 13 13 13 12 12 10 8 7 7 7 8 8 7 7 8 8 8 8 8 9
30 32 34 36 37 38 38 37 36 35 34 33 32 32 32 32 32 32 32 32 31 31 31 31 32 32 32 31 30 29 28 27 26 25 23 22 21 21 20 19 18 18 17 16 16 15 15 15 15 14 14 13 13 13 11 9 7 7 8 9 10 9 8 8 8 8 8 9 10
29 31 33 35 37 38 38 38 38 37 35 33 31 30 30 31 32 33 33 32 32 32 32 32 33 33 33 31 30 29 28 28 27 26 24 23 22 21 21 20 19 18 18 17 16 16 16 16 16 15 15 14 14 14 12 10 8 8 9 10 11 11 10 9 9 9 9 10 11
29 30 32 34 36 37 38 39 38 38 37 34 31 29 30 32 33 33 33 33 33 33 33 33 34 34 33 32 30 29 29 29 28 27 25 24 23 22 21 20 19 19 18 18 17 17 17 17 17 16 16 15 15 14 13 10 9 9 10 11 11 11 11 11 10 10 11 12 13
28 29 30 32 34 36 37 38 39 38 37 36 33 32 31 33 34 34 34 33 33 33 33 34 34 34 33 31 30 30 30 30 29 28 26 25 24 23 22 21 20 19 19 18 18 18 18 18 18 17 17 16 16 15 13 11 10 10 10 11 11 12 12 13 12 12 13 13 14
28 28 29 30 32 34 35 37 38 38 37 37 35 34 33 35 35 34 33 33 33 32 33 34 35 34 33 31 30 30 30 30 30 28 27 26 25 24 22 21 20 20 20 19 19 19 19 19 18 18 18 17 16 14 12 11 11 11 11 11 12 13 13 14 14 14 14 15 15
28 28 28 29 30 32 34 35 36 37 37 37 37 36 35 35 35 34 33 32 31 32 33 35 35 34 33 31 31 31 31 30 30 28 27 27 26 24 23 22 21 21 21 21 20 20 19 19 18 18 18 18 16 14 12 12 12 12 12 12 13 14 14 14 15 16 16 17 17
28 28 28 28 29 31 32 34 35 36 37 38 38 37 36 36 36 34 32 31 31 31 33 35 36 35 33 32 31 31 30 30 29 28 27 27 26 25 24 23 22 22 22 22 21 20 20 19 18 18 18 18 16 14 13 13 12 12 13 14 14 14 14 14 15 16 17 18 18
29 28 28 28 29 31 32 33 34 35 37 38 39 39 38 37 36 34 32 30 30 32 34 35 36 35 34 32 31 30 30 29 29 28 27 27 26 26 25 24 23 23 23 22 22 21 20 19 19 19 19 18 16 15 14 14 13 13 14 16 15 14 14 14 16 17 18 19 19
29 29 29 29 30 31 33 33 34 34 36 38 40 40 39 38 37 35 33 31 31 32 33 33 34 34 34 33 31 30 29 29 28 27 27 26 26 26 25 24 23 23 23 23 23 22 21 21 21 21 20 20 18 17 16 15 14 15 16 17 15 14 14 15 16 17 19 19 20
29 29 29 30 31 32 33 33 33 33 34 36 38 39 39 38 38 36 34 32 32 32 32 32 32 32 32 32 31 30 29 28 27 27 26 25 25 25 25 24 23 23 23 23 23 23 22 22 23 22 22 21 20 19 18 17 17 17 17 17 15 14 14 16 17 18 19 20 21
28 29 29 30 31 32 32 32 31 31 32 33 35 37 38 38 38 37 35 33 32 33 33 31 30 30 30 30 30 29 28 27 26 25 25 24 24 24 24 24 24 24 23 23 23 23 24 25 24 23 22 21 21 22 21 20 19 19 18 17 15 14 15 17 18 18 20 21 21
28 28 28 29 30 30 30 30 30 29 30 31 32 34 36 36 37 36 36 34 33 33 32 31 29 28 28 28 28 27 27 26 25 24 24 23 23 23 24 24 25 25 24 23 23 24 26 27 25 24 23 21 23 25 25 23 22 20 19 17 16 15 16 17 18 19 20 21 22
27 27 27 27 28 28 28 28 28 28 28 29 30 32 33 34 34 35 35 34 33 32 31 29 28 26 26 26 26 26 26 25 25 24 23 23 23 23 23 24 25 26 24 23 25 27 29 28 27 25 23 23 25 27 27 25 23 21 19 18 16 16 17 18 19 20 21 22 23
26 26 26 26 26 26 26 26 26 26 27 28 29 30 31 32 32 33 33 33 33 32 31 29 27 26 25 25 25 26 26 26 26 25 24 23 23 22 23 24 25 25 25 26 29 31 32 30 28 27 25 25 27 28 28 26 24 21 20 18 17 17 17 18 19 20 21 22 23
25 25 24 24 24 24 24 24 24 25 25 26 26 27 28 29 30 31 31 32 31 31 30 30 28 27 26 26 26 26 27 28 28 27 26 25 23 22 22 23 23 25 28 32 35 35 34 31 29 27 26 26 28 29 28 26 23 22 20 18 17 17 18 19 20 21 21 22 22
24 23 23 23 23 23 23 23 24 24 24 24 24 25 26 27 28 29 29 29 29 29 29 29 29 29 29 28 28 28 29 30 30 29 27 26 25 24 25 26 28 31 34 38 39 37 35 32 30 28 27 28 29 29 28 25 23 22 21 19 18 18 19 21 21 22 22 22 22
23 22 22 22 22 22 23 23 23 24 24 24 23 23 24 25 26 27 27 28 28 29 29 29 30 31 31 31 30 31 31 32 31 31 30 30 29 30 31 34 36 38 40 41 40 38 35 32 31 29 29 29 29 28 26 24 23 23 22 20 20 20 22 24 25 25 24 24 24
21 21 21 21 21 22 22 23 23 23 23 23 22 22 23 23 24 25 26 27 28 29 29 30 31 32 33 34 33 33 34 34 34 34 34 34 35 37 39 41 41 42 42 42 40 38 35 33 32 31 30 29 28 26 25 24 24 24 23 22 22 23 25 26 27 27 27 26 26
21 21 21 21 21 21 21 22 22 22 22 22 22 22 22 23 23 24 25 26 27 28 28 29 31 34 35 36 36 37 37 37 37 37 37 37 38 40 41 42 42 42 42 42 40 38 35 34 33 32 30 29 27 25 25 24 25 25 25 25 26 26 27 28 28 29 28 28 28
20 20 20 20 20 20 20 21 21 22 22 22 22 22 22 23 23 23 24 25 26 27 29 31 34 35 36 37 38 38 39 39 38 37 37 37 38 39 40 40 40 40 41 41 40 38 36 34 33 32 30 28 26 25 24 24 26 27 28 29 29 29 29 29 29 29 29 29 29
19 19 19 19 19 20 20 20 20 21 21 21 22 22 22 22 23 24 25 27 29 31 33 34 35 36 37 37 38 38 38 37 37 36 36 36 37 37 38 38 38 38 39 39 38 37 36 35 33 31 29 27 25 24 24 25 27 29 31 31 31 31 31 30 30 29 29 29 30
18 18 18 18 18 19 19 19 19 20 21 21 22 22 22 23 25 27 29 31 33 33 34 34 34 35 35 36 36 37 36 36 35 35 35 36 36 37 37 37 36 36 37 37 37 36 35 34 32 30 28 26 24 23 24 26 28 30 32 33 33 33 32 31 31 30 30 30 29
18 17 17 17 17 17 17 18 20 22 24 25 25 25 26 28 29 31 33 34 35 35 35 34 33 33 33 33 34 35 35 35 35 35 35 35 36 36 36 36 35 35 35 35 35 35 34 33 32 29 27 25 24 23 24 26 29 31 33 34 35 34 34 33 33 32 32 31 30
17 17 16 16 16 17 19 21 24 26 27 28 28 29 30 31 32 33 34 35 35 35 35 34 33 32 32 32 33 34 34 34 34 35 35 35 35 35 35 34 33 34 34 34 34 34 34 33 31 29 26 24 23 24 25 28 30 32 34 35 36 36 35 35 35 35 34 33 32
16 15 15 15 16 20 24 26 27 28 28 29 29 30 31 31 32 33 34 34 34 34 34 33 33 32 32 32 33 33 33 33 33 33 34 34 34 34 33 32 32 33 34 34 34 34 34 33 31 28 25 23 23 24 26 29 31 33 35 36 37 37 37 37 36 36 35 35 33
15 15 15 16 19 23 27 28 28 27 28 28 29 30 30 30 31 32 32 33 33 33 33 33 32 32 32 32 32 32 32 32 32 32 32 32 32 32 32 31 32 33 34 34 34 34 33 32 30 27 24 23 24 25 28 30 32 34 36 37 37 38 37 37 37 37 36 35 33
15 16 17 19 22 24 26 27 27 27 28 28 29 29 29 30 30 31 31 32 32 32 31 31 31 31 31 31 31 31 31 30 30 30 29 29 30 31 31 31 32 34 34 34 34 33 33 31 29 26 24 24 25 27 29 31 33 35 37 38 38 38 38 38 37 37 36 35 33
17 18 20 21 22 23 23 24 24 25 26 27 28 28 28 29 29 29 30 30 30 30 29 29 29 29 29 29 29 29 28 28 27 27 26 27 28 30 31 31 32 33 34 33 33 33 32 30 27 24 24 24 26 28 30 32 34 36 37 38 39 39 38 38 38 37 36 35 33
19 20 20 20 20 20 20 20 20 21 22 23 24 25 26 26 26 27 27 27 27 27 26 26 25 25 25 25 25 25 24 24 23 23 24 26 28 29 30 31 31 32 33 33 32 31 30 27 24 23 23 25 27 29 31 33 35 37 38 38 38 38 38 38 37 37 35 34 31
19 19 19 18 17 17 17 17 17 18 19 19 20 20 21 22 22 23 23 24 23 22 21 21 20 20 20 20 20 20 20 20 20 22 25 27 29 30 30 30 30 30 31 31 31 29 26 24 22 21 22 24 26 28 31 33 35 37 37 37 38 37 37 37 36 35 34 32 30
17 17 16 15 15 14 14 15 16 16 16 16 16 16 17 17 18 19 19 20 19 17 16 16 16 16 17 17 17 17 17 19 21 24 26 28 29 29 29 29 28 28 29 29 28 26 23 21 20 19 20 22 25 28 31 33 35 35 35 36 36 36 36 35 34 32 31 29 28
15 14 14 13 12 12 12 13 14 14 14 14 14 13 14 14 14 14 14 15 14 13 13 13 14 14 14 15 15 16 18 20 22 25 26 27 27 28 28 28 27 27 27 27 25 23 20 18 17 18 19 22 25 28 30 32 33 33 34 34 34 34 34 32 30 28 27 27 26
12 12 12 11 11 11 11 12 12 13 13 12 12 11 11 10 10 11 11 12 12 12 12 12 12 13 15 16 17 18 19 20 22 23 24 25 25 26 27 27 25 24 24 23 22 20 18 16 16 18 20 24 26 28 29 30 31 32 32 33 33 32 31 28 26 25 25 25 25
Wind_Direction
205 208 212 215 214 213 214 215 213 212 211 209 211 214 217 220 223 225 225 223 220 216 212 207 203 201 199 198 198 199 202 205 207 211 214 216 215 214 213 216 219 223 224 226 226 225 222 220 219 217 214 210 208 208 209 206 200 190 184 192 211 239 247 225 222 226 225 207 198
206 210 215 219 219 218 217 217 216 215 214 212 213 216 219 222 225 227 227 225 222 218 213 208 204 202 201 200 201 203 206 209 211 214 217 219 218 215 214 215 218 220 221 222 221 220 218 217 216 214 211 207 203 200 198 194 189 183 184 194 217 241 241 219 221 227 223 205 203
207 210 216 221 222 221 220 219 219 219 218 216 216 218 220 222 225 226 226 225 222 218 213 208 205 203 202 202 203 205 208 211 213 215 218 221 220 218 215 216 217 218 218 218 219 218 216 215 214 212 207 203 198 195 191 187 183 181 185 197 223 240 231 215 218 222 220 209 206
207 210 215 220 224 225 224 222 221 221 220 218 217 218 220 222 224 225 224 223 221 217 213 209 206 204 204 204 206 208 210 212 213 216 219 222 221 219 218 217 217 217 217 217 216 215 214 213 212 208 203 198 195 192 189 186 181 181 187 202 222 230 223 215 216 219 218 210 209
208 210 215 221 226 228 228 226 223 222 221 219 217 218 220 222 223 223 223 221 219 216 213 210 207 206 206 207 209 211 213 213 214 217 220 222 222 221 219 218 218 217 216 215 214 212 212 210 208 204 198 195 193 192 190 186 181 183 194 208 220 223 220 215 215 217 217 212 211
210 212 216 222 226 228 228 226 224 223 221 220 219 220 222 223 224 223 222 220 218 216 213 211 210 209 209 210 212 214 214 215 215 218 220 222 222 219 218 217 217 216 215 214 213 211 210 208 205 200 195 192 192 192 191 187 183 188 199 211 218 220 217 212 213 216 218 216 212
212 213 216 221 225 227 227 226 225 224 222 221 221 223 226 227 226 225 223 220 218 215 213 212 212 212 213 214 215 216 216 216 217 219 220 221 220 218 216 215 215 215 215 214 212 211 209 206 202 198 195 191 191 194 195 192 189 193 202 211 220 221 215 211 215 219 221 217 213
213 215 217 222 225 227 227 226 224 223 222 221 223 226 229 229 228 226 224 221 218 216 214 214 214 216 217 218 219 218 218 218 219 220 220 220 218 217 215 215 214 214 214 213 212 210 207 204 201 198 196 193 193 196 199 198 197 199 203 210 219 224 221 217 220 224 225 220 216
212 215 218 223 226 228 228 227 226 224 222 221 222 225 227 228 228 227 225 223 220 217 216 215 217 219 221 221 221 221 220 220 221 221 221 220 219 217 216 216 214 214 214 213 213 211 207 203 200 200 199 196 195 199 203 204 204 202 202 207 218 227 232 230 231 232 230 227 223
212 214 218 222 227 229 229 228 228 227 225 221 220 221 225 228 229 228 227 225 222 219 217 217 219 221 222 223 223 222 222 223 223 223 222 220 219 218 217 216 215 214 214 214 212 210 207 203 201 201 202 201 198 201 206 209 209 204 201 205 216 226 234 239 240 239 235 232 231
212 214 217 221 227 230 230 228 227 227 227 224 219 218 223 228 230 230 228 226 223 221 220 220 221 222 224 224 224 224 224 225 225 224 222 220 219 219 218 218 217 215 215 215 213 210 207 205 202 202 203 204 201 203 207 212 213 208 203 205 214 224 232 238 242 241 238 236 236
212 214 217 221 226 229 230 229 227 227 226 225 222 220 221 227 230 231 230 227 225 224 223 222 224 225 225 225 225 225 225 226 225 224 222 221 220 219 219 218 217 216 215 215 214 212 209 207 204 202 203 206 205 206 209 213 214 211 208 210 217 224 230 236 239 240 238 235 235
212 213 215 219 224 228 230 229 228 226 225 225 224 222 223 227 230 230 229 228 227 225 224 225 226 227 227 226 226 225 225 225 224 223 222 220 220 219 218 218 216 215 215 215 215 213 211 209 206 203 203 207 209 210 212 214 214 213 215 221 225 228 231 235 237 238 237 235 234
211 211 213 215 220 225 228 229 228 226 225 224 225 224 225 226 228 227 227 228 229 227 226 227 228 228 228 227 227 226 225 224 223 221 220 220 220 219 218 217 216 214 214 215 215 215 213 210 207 203 203 208 212 215 217 217 216 220 228 237 238 236 234 235 237 238 237 237 237
210 211 212 213 217 222 226 228 227 226 225 225 226 226 225 225 226 225 225 226 228 228 228 229 230 229 229 228 226 225 224 223 221 219 218 219 220 219 218 217 215 214 214 215 216 215 212 210 206 202 202 208 215 220 221 219 222 235 251 260 257 249 240 236 237 239 240 241 242
210 210 210 211 215 221 225 228 228 226 225 226 228 227 226 225 225 224 223 225 228 229 229 230 231 231 229 227 225 224 222 220 219 217 216 217 219 219 217 216 215 214 214 215 216 214 211 208 203 200 202 210 218 223 223 223 233 254 272 278 273 260 245 237 238 241 243 244 245
209 210 211 213 216 222 226 229 228 227 226 227 229 228 227 225 226 225 225 228 230 230 228 230 231 231 229 227 224 221 218 217 217 215 214 215 217 218 217 215 214 214 214 215 216 215 210 204 200 201 208 217 223 224 224 228 243 262 277 283 278 262 245 237 238 243 246 247 248
209 211 214 216 219 224 228 231 230 228 226 227 229 229 228 227 228 227 227 230 233 230 227 228 230 230 229 227 223 219 216 214 214 213 212 213 215 216 216 214 214 213 212 214 216 214 207 202 203 212 223 229 226 223 224 232 246 261 274 281 276 259 243 237 239 244 248 250 251
209 211 214 218 221 225 229 231 231 229 227 226 228 229 229 228 229 229 229 231 233 232 228 226 228 229 228 226 223 219 215 212 212 211 211 211 212 214 214 213 212 211 210 211 213 211 207 207 216 230 240 237 227 223 226 234 245 259 271 278 271 256 243 240 243 247 251 253 253
210 211 213 216 221 225 228 230 230 229 227 226 227 228 228 229 229 230 230 231 233 232 227 224 224 225 226 225 222 218 214 212 210 210 210 210 210 211 212 212 212 212 210 208 207 207 209 217 232 247 252 240 227 223 227 235 245 258 269 275 268 255 245 243 246 250 254 256 256
211 212 213 214 219 224 226 226 227 227 226 226 226 227 228 228 229 229 230 231 232 228 223 220 219 221 222 222 220 217 214 212 209 208 208 208 209 209 210 211 213 213 209 204 205 209 216 228 244 256 255 240 228 226 229 236 246 257 267 271 266 256 248 246 248 252 255 257 258
212 213 213 214 216 219 222 222 222 223 224 225 226 227 227 228 228 228 229 230 229 226 221 218 217 218 220 220 219 217 215 212 210 208 208 207 208 208 209 212 215 213 207 205 208 215 225 237 251 258 253 240 231 229 232 238 247 257 265 268 263 257 252 251 253 255 257 258 259
214 214 214 214 214 215 217 218 218 218 219 221 223 225 226 226 227 227 227 227 226 224 222 219 218 219 220 221 220 218 215 213 211 210 209 207 206 205 206 208 209 208 208 210 216 223 232 243 253 256 250 240 234 232 235 241 249 257 263 264 261 258 256 256 257 258 259 260 260
214 214 214 214 214 214 214 214 214 215 216 217 219 221 222 224 224 225 224 224 225 225 224 223 221 221 221 221 219 216 214 213 212 210 208 206 204 203 204 206 209 212 216 221 225 231 238 247 253 251 245 241 238 237 239 244 250 255 260 261 259 256 255 255 255 256 258 259 260
213 213 214 215 215 214 213 212 212 212 214 215 215 216 219 220 221 222 224 225 227 229 229 228 225 223 221 219 217 215 215 217 217 215 214 215 218 220 221 222 224 226 228 231 233 237 242 249 252 249 245 244 244 243 244 247 250 254 258 259 257 254 253 253 254 255 256 258 260
213 213 214 214 215 214 213 212 211 211 212 213 213 214 215 217 218 221 225 228 231 233 232 229 225 222 220 218 217 218 221 224 226 228 232 237 242 243 243 241 239 238 238 237 237 239 244 249 251 251 250 251 250 248 246 247 249 252 255 257 256 256 255 256 257 258 260 261 262
213 213 213 214 214 214 213 212 211 211 212 212 212 212 212 213 217 221 225 228 229 229 227 223 221 220 221 221 222 225 229 234 238 243 248 253 256 255 253 250 246 244 242 240 239 240 244 248 250 253 255 257 254 250 247 248 248 250 252 256 258 260 261 262 264 265 266 267 267
212 212 212 213 214 214 214 213 212 212 212 212 212 212 213 214 216 219 221 221 221 220 219 219 220 222 223 224 226 230 236 242 247 251 255 258 258 257 254 251 248 246 243 241 239 241 244 248 251 255 258 259 255 250 248 248 248 249 253 257 261 264 266 267 269 270 271 271 272
211 211 211 211 212 213 213 213 213 213 212 212 212 211 211 212 213 214 214 215 216 217 218 220 223 225 226 227 230 234 240 245 250 254 255 255 252 250 249 248 245 244 242 240 240 242 246 250 254 258 260 259 254 250 249 249 249 250 254 259 263 267 269 270 270 271 272 273 275
210 210 210 210 211 212 214 215 215 215 213 211 210 210 210 210 211 213 214 216 218 223 228 233 234 234 234 235 236 238 241 246 250 253 253 250 246 244 243 242 241 239 239 239 241 244 248 253 257 260 260 258 253 251 250 250 251 253 256 261 265 268 270 270 270 271 272 274 276
209 208 209 210 211 213 214 215 215 215 214 212 210 209 210 212 214 216 219 221 224 230 237 243 244 244 245 245 244 243 245 248 252 254 252 248 243 241 240 239 237 236 237 240 242 246 251 256 260 261 260 256 253 252 252 252 253 255 258 263 267 269 270 270 270 271 273 275 277
207 207 208 209 211 211 212 214 215 216 217 217 216 215 216 218 220 223 225 228 231 235 239 243 246 248 249 249 248 247 249 252 255 256 254 248 243 241 239 237 235 235 237 241 244 248 253 257 261 262 259 255 252 252 252 252 253 256 261 266 269 271 271 271 271 272 275 277 280
206 207 207 207 208 211 215 217 219 222 223 224 224 224 224 226 227 229 231 234 237 239 242 245 247 249 249 250 250 250 252 255 258 258 255 249 244 241 239 235 233 235 239 242 245 250 254 259 261 261 259 255 252 251 251 252 254 259 264 269 272 273 272 272 272 273 276 280 282
204 204 203 204 211 217 222 225 227 230 231 229 230 231 232 233 233 234 236 238 241 244 247 249 251 252 253 254 254 255 257 260 261 259 254 248 243 240 237 233 232 236 240 244 248 252 257 260 261 260 257 254 251 250 250 252 256 262 268 272 274 275 274 273 273 275 278 281 283
201 201 202 208 217 225 231 233 234 235 235 234 235 236 238 239 239 241 243 244 245 247 249 252 254 255 256 257 258 259 260 262 261 258 252 245 240 237 235 232 233 237 243 246 251 255 259 261 260 257 255 252 250 249 250 254 260 266 271 275 276 276 275 274 274 276 279 282 283
203 206 211 217 225 234 239 241 242 241 241 240 240 241 242 243 244 246 247 248 249 250 252 254 255 256 257 258 258 259 260 260 259 254 247 240 236 234 233 232 234 239 245 250 255 259 261 260 258 255 252 250 249 250 253 258 264 270 274 276 276 276 275 274 275 277 281 283 283
213 218 223 227 232 239 244 248 249 249 248 247 246 245 245 246 247 248 250 251 252 253 255 255 256 256 257 257 257 258 259 258 253 246 239 235 233 234 234 234 237 242 249 255 259 261 261 259 257 255 253 251 251 253 257 263 268 272 275 276 276 276 275 275 277 280 282 283 281
223 228 233 234 236 239 244 249 251 252 253 252 251 250 249 248 247 248 251 254 255 255 255 254 252 252 253 254 255 256 254 249 242 236 234 233 234 236 237 238 241 247 254 259 261 262 261 261 261 260 258 256 256 259 263 267 271 274 276 276 276 276 276 277 279 281 282 281 279
230 234 237 237 234 232 236 242 248 251 253 255 254 253 251 249 247 247 251 255 256 254 250 246 242 242 244 246 246 244 239 235 233 233 234 236 238 240 241 243 247 252 257 260 262 262 264 267 268 267 264 262 262 265 268 271 273 275 276 277 276 277 278 279 280 281 280 278 277
232 233 234 231 226 221 222 230 240 248 253 254 254 253 251 249 246 244 244 246 246 242 237 233 230 229 229 229 228 228 227 228 232 235 238 239 241 243 246 249 252 255 258 260 261 265 269 274 273 270 266 265 266 268 271 274 276 277 277 277 277 278 279 280 280 279 277 276 275
228 227 225 223 216 211 209 216 229 242 251 254 253 251 248 242 237 230 225 224 225 224 223 221 218 216 216 217 219 222 226 230 235 239 243 244 245 248 251 255 256 256 256 259 264 270 275 276 272 268 266 267 270 273 276 278 278 278 278 278 278 279 279 279 278 276 274 274 274